LUCAS (JDRS-1)

Last updated on Fri Dec 19 2025 00:02:53 GMT+0000 (Coordinated Universal Time)

1 47202U 20089A 25352.57198139 -.00000209 00000+0 00000+0 0 9994 2 47202 0.0449 277.7288 0002965 358.9002 107.4747 1.00267176 18609
UTC large
Height (km)
Speed (km/s)
/
Latitude / Longitude
Inclination (degrees)
Orbital Period (minutes)
Azimuth
Elevation
Range (km)
Doppler Factor

Next 0 passes for location: London (51.5072 / 0.1276)

Sorry there are no passes over London.